Location: Unspecified
(0.0000°N, 0.0000°E)
Time: 14:11:27
(UTC+00:00)

Vanguard 1 - Pass Details

Date: 15 December 2017
Orbit: 650 x 3833 km, 34.2° (Epoch: 21 April)

Event Time Altitude Azimuth Distance (km) Brightness Sun altitude
Rises 06:38:32 0° 245° (WSW) 7,057 14.0 10.0°
Reaches altitude 10° 06:42:55 10° 249° (WSW) 6,332 13.8 11.0°
Maximum altitude 07:04:33 58° 323° (NW) 4,226 13.2 15.9°
Drops below altitude 10° 07:25:28 10° 39° (NE) 6,081 14.3 20.7°
Sets 07:29:40 0° 44° (NE) 6,770 14.6 21.6°
